星链-30227 (STARLINK-30227 )

导读 | 星芒AI

STARLINK-30227 是 SpaceX Starlink 项目中的一颗低轨通信卫星,属于第三代星链卫星(v1.5 或 v2 版本)。该卫星于 2023 年发射,运行在约 550 公里的轨道高度,旨在为全球用户提供高速、低延迟的互联网服务。它采用先进的推进系统和激光通信技术,提高网络效率和卫星自主性。STARLINK-30227 与其他星链卫星协同工作,增强覆盖范围和连接稳定性,支持偏远地区和移动用户的互联网接入需求。

基本信息
目录编号:
57505
目录名称:
STARLINK-30227
国际标识:
2023-113L
轨道中心:
EARTH
卫星名称:
星链-30227
卫星全名:
星链-30227 (STARLINK-30227 )
卫星状态:
在轨 (已飞行815 天)
发射日期:
2023-08-07 UTC
国别 :
美国 (US)
星等 :
--
轨道信息
数据来源 国际轨道数据
星历时间: 2025-10-30T04:04:11+0800
22小时前
查看轨道信息
半长轴: 6937.203km
偏心率: 0.0001393
轨道倾角: 43.005°
近地点辐角 267.210°
升交点赤经 355.578°
平近点角 92.858°
近地点: 558.101km
远地点: 560.035km
周期: 95.838分钟
每日圈数: 15.025406
详细信息
固有亮度:
5
最大亮度:
0.3
卫星平台:
Starlink v2.0 mini
覆盖范围:
全球
运营商:
太空探索技术公司
运营商所在国:
美国
制造商(研发单位):
太空探索技术公司
制造商所在国:
美国
使用方式:
暂无
卫星简介
星链(Starlink)计划是由太空探索技术公司(SpaceX)提出的一个巨型低轨卫星互联网星座项目,计划在2019年至2024年间在太空搭建由约1.2万颗卫星组成的“星链”网络,其中1584颗将部署在地球上空550千米处的近地轨道,并从2020年开始工作。该卫星仍在工作。
2D轨道图
3D轨道图
轨道高度分析图
轨道倾角分析图
轨道综合分析图
查看轨道综合分析图